sat.trackr.live / text

‹ back to catalog

ONEWEB-0111

NORAD 47261 · 2020-100D

PAYLOAD ACTIVE UNKNOWN

§ Identity

Operator
Country
UK
Launch date
2020-12-18
Launch site
VOSTO
Launch vehicle
Mass (kg)
RCS (m²)

Purposes: comms

External: N2YO · Heavens-Above · Gunter

§ Orbital elements

Epoch: 2026-09-20T04:35:51.011232Z

Period
109.72 min
Inclination
87.8975°
Eccentricity
0.0001971
Mean motion
13.12441830 rev/d
Perigee alt
1,212.2 km
Apogee alt
1,215.2 km
Semi-major
7,591.9 km
B*
9.9888e-4
RAAN
331.8039°
Arg perigee
96.0256°
Mean anomaly
264.1097°
Rev number
27,702

§ Raw data

ONEWEB-01111 47261U 20100D   26263.19156263  .00000372  00000+0  99888-3 0  99912 47261  87.8975 331.8039 0001971  96.0256 264.1097 13.12441830277023

JSON: /api/v1/satellites/47261 · /tle

For live sub-satellite position, see the globe view (requires WebGL).

§ Visibility from observer

Set your observer location to see the next 7 days of passes ≥ 10°. The values pass through the URL so the page stays shareable.

No JS? Fill the form by hand. The geolocation button needs JavaScript.